Location: Passo di Treia
(43.2833°N, 13.3333°E)
Time: 09:40:54
(UTC+00:00)

Cosmos 2251 Rocket - Pass Details

Date: 09 December 2019
Orbit: 765 x 791 km, 74.0° (Epoch: 27 January)

Event Time Altitude Azimuth Distance (km) Brightness Sun altitude
Rises 16:16:14 0° 191° (S) 3,255 7.3 -8.1°
Reaches altitude 10° 16:18:37 10° 188° (S) 2,328 6.5 -8.5°
Maximum altitude 16:23:52 67° 107° (ESE) 841 3.5 -9.4°
Drops below altitude 10° 16:29:06 10° 25° (NNE) 2,327 5.6 -10.3°
Enters shadow 16:30:35 - 24° (NNE) 2,897 6.1 -10.6°
